User: anonymous   Login
Location: Treviso
(45.6669°N, 12.2430°E)
Time: 12:17:53
(UTC+02:00)
Language:

ISS - Orbit

View from above orbital plane
View from above orbital plane
View from above satellite
View from above satellite

Ground track
Ground track

The orbit data is extracted from the following two-line orbital elements,

1 25544U 98067A   22272.20280866  .00014743  00000-0  26227-3 0  9998
2 25544  51.6449 181.2521 0002650 316.9525 197.4867 15.50381701361312
Epoch (UTC): 29 September 2022 04:52:02
Eccentricity: 0.0002650
inclination: 51.6449°
perigee height: 414 km
apogee height: 417 km
right ascension of ascending node: 181.2521°
argument of perigee: 316.9525°
revolutions per day: 15.50381701
mean anomaly at epoch: 197.4867°
orbit number at epoch: 36131

The dashed part of the orbit path shows where the satellite is in the earth's shadow,  

DLR